カタログに戻る

STARLINK-5586

運用中通信VLEO
NORAD 55376·PAYLOAD·🇺🇸 United States

打ち上げ Jan 26, 2023 から Cape Canaveral Space Force Station

Loading…

次のパス (今後24時間)

TLE

最新Source: CelesTrak SupGP

元期: Sep 15, 2026, 03:04 UTC

1 55376C 23013AX  26258.12826389  .00018339  00000+0  66421-3 0  2580
2 55376  42.9992 299.0304 0001485 262.6509  87.0268 15.27571267    13

AllMySatでSTARLINK-5586をリアルタイム追跡

Download on the App Store